Location: Nairn
(57.5833°N, 3.8667°W)
Time: 14:34:09
(UTC+00:00)

UNK - Visible Passes

Search period start: 09 December 2021 00:00
Search period end: 19 December 2021 00:00
Orbit: 665 x 686 km, 98.2° (Epoch: 08 December)

Date Brightness Start Highest point End Pass type
(mag) Time Alt. Az. Time Alt. Az. Time Alt. Az.
09 Dec 4.9 16:20:19 10° N 16:24:37 40° WNW 16:28:52 10° SW visible
09 Dec 6.4 17:59:27 10° NNW 18:00:44 11° NW 18:02:01 10° WNW visible
10 Dec 5.7 16:55:13 10° N 16:58:54 25° NW 17:02:36 10° WSW visible
11 Dec 6.2 17:30:22 10° N 17:33:05 16° NW 17:35:47 10° W visible
12 Dec 5.1 16:26:51 10° N 16:31:03 36° WNW 16:35:15 10° SW visible
12 Dec 6.5 18:06:37 10° NNW 18:07:07 10° NW 18:07:37 10° NW visible
13 Dec 5.8 17:01:47 10° N 17:05:21 23° NW 17:08:52 10° WSW visible
14 Dec 6.2 17:37:02 10° NNW 17:39:29 15° NW 17:41:57 10° WNW visible
15 Dec 5.2 16:33:24 10° N 16:37:30 33° WNW 16:41:35 10° WSW visible
16 Dec 5.9 17:08:23 10° N 17:11:46 21° NW 17:15:09 10° W visible
17 Dec 6.3 17:43:42 10° NNW 17:45:53 13° NW 17:48:04 10° WNW visible
18 Dec 5.3 16:39:57 10° N 16:43:57 30° WNW 16:47:56 10° WSW visible
